Location: *
(40.7873°S, 98.7174°E)
Time: 12:08:55
(UTC+00:00)

Kosmos-1816 - Pass Details

Date: 18 June 2024
Orbit: 959 x 1007 km, 82.9° (Epoch: 23 July)

Event Time Altitude Azimuth Distance (km) Brightness Sun altitude
Rises 12:34:43 0° 187° (S) 3,769 9.1 -27.6°
Reaches altitude 10° 12:37:18 10° 185° (S) 2,809 8.4 -28.1°
Enters shadow 12:41:45 47° 174° (S) 1,322 6.5 -28.9°
Exits shadow 12:49:58 11° 11° (N) 2,697 8.2 -30.5°
Drops below altitude 10° 12:50:07 10° 11° (N) 2,754 8.3 -30.5°
Sets 12:52:36 0° 9° (N) 3,681 9.0 -31.0°
